Find Starlink 2346

NORAD ID: 47887 Int'l Des: 2021-021 Owner: SPXS Country: US Constellation: starlink operational
LEOCIRCULARSTARLINK_TYPE

現在のビュー

3D地球を読み込み中...

About Starlink 2346

Starlink 2346 (NORAD 47887) is a starlink constellation satellite (v1.0) launched Mar 14, 2021 by SPXS of US. It operates in LEO, CIRCULAR, STARLINK_TYPE orbit with a mass of 260.00 kg.

Starlink 2346について

説明を読み込み中...

次回通過

Passes for default location (London). Set your location on the main map for personalized predictions.

高度履歴

Loading altitude history...

軌道要素

1 47887U 21021AD 26192.84087969 .00002309 00000-0 86128-4 0 9994
2 47887 53.1598 63.3278 0001761 101.7993 258.3206 15.31705699295087
Epoch: Jul 11, 2026 • Age: 26 hours

現在のステータス

高度 470.9 km
遠地点 / 近地点 N/A
速度 7.63 km/s
衛星直下点 25.95°N, 41.86°W
打ち上げ日 Mar 14, 2021
運用期間 5.3 years
タイプ internet

技術仕様

分類 Payload
質量 260.00 kg
乾燥質量 248.00 kg
総質量 260.00 kg
長さ 0.20 m
直径 2.80 m
スパン 9.00 m
形状 Box + pan
製造者 SPXS
バスタイプ Starlink
フェーズステータス In Orbit
所有者/国 SPXS/US

Most Searched